カタログに戻る

STARLINK-5888

運用中通信SSO
NORAD 56348·PAYLOAD·🇺🇸 United States

打ち上げ Apr 27, 2023 から Vandenberg Space Force Base

Loading…

次のパス (今後24時間)

TLE

最新Source: CelesTrak SupGP

元期: Sep 14, 2026, 20:55 UTC

1 56348C 23058AH  26257.87201389  .00774640  00000+0  40422-1 0  2571
2 56348  97.2857 251.9529 0001643  83.6031 101.0041 15.15630978    17

AllMySatでSTARLINK-5888をリアルタイム追跡

Download on the App Store